Weather Service Report


415 
ASUS44 KLZK 181505
RWRLZK

WEATHER ROUNDUP FOR ARKANSAS
NATIONAL WEATHER SERVICE LITTLE ROCK AR
1000 AM CDT FRI APR 18 2014

NOTE: "FAIR" INDICATES FEW OR NO CLOUDS BELOW 12,000 FEET WITH NO
SIGNIFICANT WEATHER AND/OR OBSTRUCTIONS TO VISIBILITY.

ARZ001-003-010-029-181600-
NORTHWEST ARKANSAS
  
CITY           SKY/WX    TMP DP  RH WIND       PRES   REMARKS
FAYETTEVILLE   SUNNY     57  45  64 CALM      30.28S                  
FORT SMITH     SUNNY     62  44  51 CALM      30.27R                  
HARRISON       SUNNY     59  41  51 SE3       30.29R                  
BENTONVILLE    SUNNY     57  43  58 NE3       30.29S                  
ROGERS         SUNNY     58  43  57 NE3       30.29S                  
SILOAM SPGS    SUNNY     57  41  54 CALM      30.29S                  
HIGHFILL       SUNNY     58  44  60 CALM      30.28R                  
SPRINGDALE     SUNNY     59  45  58 CALM      30.29S                  
$$

ARZ004-005-016-181600-
NORTH CENTRAL ARKANSAS
  
CITY           SKY/WX    TMP DP  RH WIND       PRES   REMARKS
BATESVILLE     MOSUNNY   63  45  51 E5        30.27R                  
FLIPPIN        SUNNY     59  41  51 CALM      30.29S                  
MTN HOME       SUNNY     62  41  46 VRB3      30.27S                  
$$

ARZ040-041-181600-
WEST CENTRAL ARKANSAS
  
CITY           SKY/WX    TMP DP  RH WIND       PRES   REMARKS
MENA           SUNNY     61  45  55 CALM      30.26S                  
MOUNT IDA      SUNNY     61  49  64 CALM      30.24R                  
$$

ARZ009-017-025-026-028-181600-
NORTHEAST ARKANSAS
  
CITY           SKY/WX    TMP DP  RH WIND       PRES   REMARKS
CORNING        FAIR      63  48  59 NE8       30.28S                  
JONESBORO      MOSUNNY   64  48  56 NE8       30.26R                  
NEWPORT        MOSUNNY   62  47  58 NE10      30.28R                  
WALNUT RIDGE   SUNNY     61  48  63 NE8       30.28R                  
BLYTHEVILLE    CLOUDY    64  49  57 E5        30.27S                  
$$

ARZ022-023-033-042-044-181600-
CENTRAL ARKANSAS
  
CITY           SKY/WX    TMP DP  RH WIND       PRES   REMARKS
LITTLE ROCK    PTSUNNY   63  50  62 NE3       30.26R                  
N LITTLE ROCK  PTSUNNY   62  49  61 NE6       30.26R                  
JACKSONVILLE   PTSUNNY   63  48  58 N1        30.27R                  
SEARCY         SUNNY     61  48  62 VRB5      30.28R                  
HOT SPRINGS    SUNNY     65  50  58 W3        30.26R                  
RUSSELLVILLE   SUNNY     64  47  53 CALM      30.26S                  
CLINTON        FAIR      64  46  52 CALM      30.28S                  
$$

ARZ036-181600-
EAST ARKANSAS
  
CITY           SKY/WX    TMP DP  RH WIND       PRES   REMARKS
WEST MEMPHIS   CLOUDY    65  53  65 NW9       30.23F                  
$$

ARZ050-053-066-070-073-181600-
SOUTHWEST ARKANSAS
  
CITY           SKY/WX    TMP DP  RH WIND       PRES   REMARKS
ARKADELPHIA    FAIR      58  54  86 E3        30.26R                  
CAMDEN         CLOUDY    59  52  77 MISG      30.24S                  
TEXARKANA      SUNNY     63  51  65 N6        30.25R                  
EL DORADO      MOSUNNY   63  52  67 NE6       30.22F                  
DE QUEEN       SUNNY     63  51  65 CALM      30.24S                  
$$

ARZ056-057-069-181600-
SOUTHEAST ARKANSAS
  
CITY           SKY/WX    TMP DP  RH WIND       PRES   REMARKS
PINE BLUFF     MOSUNNY   66  52  60 NE9       30.25R                  
STUTTGART      PTSUNNY   64  52  63 N9        30.25S                  
MONTICELLO     PTSUNNY   65  54  67 NW7       30.22S                  

$$



Return to Home page


Western Regional Climate Center, wrcc@dri.edu